{"data":{"norad_id":47596,"intl_designator":"2021-009BA","name":"STARLINK-2001","alt_names":[],"object_type":"PAYLOAD","status":"ACTIVE","operator":null,"country":"US","launch_date":"2021-02-04","launch_site_code":"AFETR","launch_vehicle":null,"mission":null,"orbit_class":"UNKNOWN","rcs_meters":null,"size_class":null,"mass_kg":null,"dimensions":null,"purposes":["comms"],"wikipedia_slug":null,"has_3d_model":false,"image_url":null,"decayed_at":null,"tle_current":{"epoch":"2026-09-20T05:18:15.543072Z","epoch_age_seconds":50247,"freshness":"FRESH","line1":"1 47596U 21009BA  26263.22101323  .04596115  12140-4  74279-3 0  9991","line2":"2 47596  53.0138 134.3246 0009283 253.0616 106.9410 16.32707434311420","mean_motion":16.32707434,"eccentricity":0.0009283,"inclination_deg":53.0138,"raan_deg":134.3246,"arg_perigee_deg":253.0616,"mean_anomaly_deg":106.941,"bstar":0.00074279,"rev_number":31142,"period_min":88.197062744555,"perigee_km":179.18109444505,"apogee_km":191.36672313831,"semimajor_km":6563.4109087917,"source":"CELESTRAK","updated_at":"2026-09-20T09:00:38.596744Z"}}}